Regional Weather Roundup
Issued by NWS Cleveland, OH

Home | Current Version | Previous Version | Graphics & Text | Print | Product List | Glossary On
Versions: 1 2 3 4 5 6 7 8 9 10 11 12 13 14 15 16 17 18 19 20 21 22 23 24 25 26 27 28 29 30 31 32 33 34 35 36 37 38 39 40 41 42 43 44 45 46 47 48 49 50
000
ASUS41 KCLE 011502
RWRCLE
OHIO REGIONAL WEATHER ROUNDUP
NATIONAL WEATHER SERVICE CLEVELAND, OH
1100 AM EDT WED OCT 01 2014

NOTE: "FAIR" INDICATES FEW OR NO CLOUDS BELOW 12,000 FEET WITH NO
SIGNIFICANT WEATHER AND/OR OBSTRUCTIONS TO VISIBILITY.

OHZ001>008-015>018-024>027-034-035-043-044-011600-
   NORTHWEST OHIO

CITY           SKY/WX    TMP DP  RH WIND       PRES   REMARKS
DEFIANCE       MOSUNNY   59  50  72 VRB3      30.08R
FINDLAY        CLOUDY    58  52  80 CALM      30.06S
TOLEDO EXPRESS SUNNY     58  51  78 N3        30.07S
TOLEDO EXEC    CLOUDY    61  53  75 N3        30.08R
LIMA           CLOUDY    58  52  80 E6        30.06S
$$

OHZ009>014-019>023-028>033-038-089-011600-
   NORTHEAST OHIO

CITY           SKY/WX    TMP DP  RH WIND       PRES   REMARKS
CLE-HOPKINS    CLOUDY    63  56  78 N5        30.07R
CLE-LAKEFRONT  PTSUNNY   64  58  80 NW6       30.05R
CUY CO. ARPT   PTSUNNY   64  61  88 N6        30.06R
LORAIN-ELYRIA  CLOUDY    65  56  72 CALM      30.07R
ASHTABULA      PTSUNNY   60  58  92 CALM      30.06S
AKRON-CANTON   CLOUDY    60  55  83 E7        30.06R
WOOSTER        CLOUDY    61  55  81 NE3       30.06S
MANSFIELD      CLOUDY    58  56  93 NE7       30.07R
YOUNGSTOWN     FOG       57  56  96 VRB3      30.06R VSB 3/4
$$

OHZ042-051>053-060>062-070>072-077>081-011600-
  SOUTHWEST OHIO

CITY           SKY/WX    TMP DP  RH WIND       PRES   REMARKS
CINC-COVINGTON SUNNY     63  52  67 VRB5      30.04R
CINC-LUNKEN    CLOUDY    54  52  93 NE5       30.06S FOG
HAMILTON       CLOUDY    56  53  90 CALM      30.06S FOG
DAYTON         FOG       54  52  93 NE3       30.07R VSB 1
WRIGHT-PAT AFB NOT AVBL
DAYTON GENERAL CLOUDY    52  52 100 NE5       30.05S FOG
WILMINGTON     CLOUDY    52  51  97 NE3       30.06R FOG
$$

OHZ036-037-039>041-045>050-054>059-063>069-073>076-082>088-011600-
  CENTRAL AND SOUTHEAST OHIO

CITY           SKY/WX    TMP DP  RH WIND       PRES   REMARKS
COLUMBUS       CLOUDY    58  53  84 VRB7      30.05R
OSU AIRPORT    CLOUDY    54  52  93 N3        30.06S FOG
BOLTON FIELD   CLOUDY    55  54  94 CALM      30.06S FOG
RICKENBACK AFB CLOUDY    56  53  88 CALM      30.05S
NEWARK         CLOUDY    57  54  89 N3        30.05R FOG
MARION         CLOUDY    58  54  86 CALM      30.07R
LANCASTER      CLOUDY    60  53  77 NE3       30.06R
ZANESVILLE     CLOUDY    59  54  83 NE5       30.05R
NEW PHILLY     CLOUDY    57  55  93 CALM      30.07R FOG
$$



USA.gov is the U.S. government's official web portal to all federal, state and local government web resources and services.